Total_Precipitation_Accumulation
0.00 0.00 0.01 0.01 0.02 0.02 0.04 0.09 0.22 0.26 0.20 0.28 0.36 0.56 0.66 0.77 0.95 0.95 0.83 0.87 1.18 1.39 1.65 2.02 2.60 3.49 4.56 5.46 5.74 5.21 4.65 4.28 3.83 3.38 2.81 2.42 2.32 2.20 1.97 1.72 1.43 1.26 1.17 1.22
0.00 0.02 0.02 0.01 0.02 0.04 0.06 0.08 0.19 0.26 0.18 0.21 0.35 0.66 0.94 0.92 0.84 0.82 0.85 0.83 0.99 1.38 1.82 2.46 3.46 4.12 4.39 4.50 4.26 3.89 3.58 3.37 2.91 2.47 2.19 1.94 1.90 1.74 1.57 1.47 1.36 1.08 0.98 1.00
0.01 0.03 0.02 0.02 0.03 0.09 0.10 0.10 0.18 0.25 0.15 0.16 0.36 0.80 1.07 1.08 0.86 0.73 0.73 0.70 0.94 1.39 1.97 2.77 3.34 3.48 3.22 2.90 2.81 2.74 2.77 2.51 2.36 2.25 2.12 2.00 1.94 1.73 1.48 1.34 1.21 1.00 0.87 0.86
0.01 0.02 0.02 0.02 0.04 0.08 0.09 0.06 0.06 0.09 0.15 0.33 0.52 1.03 1.18 0.98 0.92 0.76 0.74 0.72 0.85 1.16 1.49 1.92 2.18 2.08 2.21 2.34 2.33 2.42 2.50 2.24 2.21 2.13 1.78 1.60 1.49 1.34 1.21 1.15 1.13 1.19 1.00 0.86
0.02 0.03 0.02 0.02 0.03 0.04 0.04 0.03 0.04 0.11 0.22 0.41 0.60 0.85 0.96 0.76 0.90 0.73 0.61 0.63 0.65 0.84 0.92 1.03 1.16 1.30 1.51 1.62 1.78 2.05 2.26 2.20 2.04 1.86 1.71 1.65 1.48 1.41 1.40 1.42 1.34 1.29 1.19 1.00
0.03 0.04 0.03 0.02 0.02 0.03 0.03 0.05 0.12 0.23 0.40 0.89 0.84 0.82 1.02 0.92 0.91 0.69 0.52 0.47 0.55 0.70 0.79 0.82 0.86 0.99 1.16 1.30 1.45 1.69 1.98 2.09 2.01 1.85 1.71 1.63 1.58 1.51 1.42 1.39 1.33 1.19 1.11 1.06
0.09 0.07 0.05 0.03 0.03 0.05 0.05 0.07 0.24 0.58 0.98 1.14 0.71 0.78 1.05 0.79 0.68 0.51 0.31 0.29 0.43 0.64 0.77 0.83 0.79 0.75 0.83 0.99 1.14 1.23 1.39 1.62 1.73 1.69 1.64 1.57 1.63 1.50 1.30 1.20 1.13 1.10 0.98 0.90
0.14 0.12 0.06 0.04 0.04 0.06 0.05 0.04 0.11 0.22 0.33 0.51 0.66 1.05 1.18 0.84 0.56 0.31 0.20 0.24 0.39 0.55 0.59 0.65 0.67 0.62 0.60 0.69 0.88 0.99 1.16 1.33 1.51 1.50 1.45 1.40 1.44 1.36 1.25 1.23 1.03 0.94 0.92 0.87
0.05 0.05 0.04 0.04 0.05 0.06 0.05 0.03 0.04 0.07 0.12 0.32 0.66 0.96 0.92 0.73 0.51 0.32 0.23 0.23 0.25 0.33 0.40 0.51 0.58 0.62 0.62 0.62 0.73 0.84 1.03 1.20 1.37 1.47 1.47 1.38 1.37 1.38 1.32 1.23 1.08 0.94 0.99 0.96
0.02 0.02 0.04 0.04 0.05 0.06 0.05 0.04 0.04 0.05 0.11 0.23 0.50 0.87 1.05 0.87 0.58 0.35 0.30 0.29 0.34 0.36 0.32 0.44 0.56 0.59 0.53 0.46 0.52 0.67 0.83 1.03 1.17 1.33 1.35 1.25 1.39 1.36 1.32 1.24 1.11 0.99 0.95 0.93
0.02 0.02 0.05 0.05 0.06 0.08 0.07 0.06 0.06 0.05 0.08 0.14 0.33 0.55 0.51 0.45 0.36 0.31 0.34 0.32 0.28 0.31 0.29 0.39 0.45 0.49 0.45 0.38 0.40 0.48 0.64 0.80 0.90 1.00 1.11 1.11 1.17 1.15 1.11 1.12 1.12 1.06 1.01 0.97
0.02 0.02 0.03 0.06 0.09 0.08 0.09 0.09 0.09 0.08 0.08 0.09 0.16 0.34 0.29 0.30 0.30 0.29 0.37 0.39 0.32 0.30 0.39 0.35 0.32 0.40 0.46 0.38 0.33 0.39 0.51 0.64 0.71 0.78 0.82 0.88 0.95 0.99 0.95 0.94 1.03 1.09 1.04 0.98
0.03 0.02 0.03 0.11 0.17 0.15 0.10 0.08 0.09 0.10 0.09 0.08 0.20 0.39 0.30 0.23 0.30 0.28 0.32 0.49 0.53 0.28 0.26 0.27 0.28 0.34 0.39 0.36 0.33 0.39 0.46 0.54 0.62 0.63 0.67 0.76 0.83 0.84 0.83 0.85 0.94 1.02 1.07 1.08
0.03 0.02 0.03 0.09 0.18 0.20 0.16 0.11 0.11 0.10 0.07 0.07 0.13 0.32 0.30 0.27 0.28 0.37 0.46 0.43 0.33 0.21 0.18 0.20 0.25 0.33 0.37 0.35 0.32 0.35 0.43 0.55 0.61 0.65 0.77 0.88 0.93 0.93 0.93 0.90 0.95 1.01 1.09 1.11
0.03 0.02 0.02 0.03 0.06 0.11 0.15 0.15 0.12 0.08 0.05 0.07 0.10 0.19 0.18 0.24 0.29 0.38 0.36 0.32 0.31 0.28 0.23 0.25 0.28 0.42 0.47 0.47 0.44 0.44 0.50 0.60 0.70 0.79 0.94 1.12 1.26 1.28 1.18 1.14 1.18 1.22 1.29 1.35
0.03 0.03 0.03 0.03 0.06 0.10 0.12 0.13 0.10 0.07 0.05 0.05 0.07 0.13 0.15 0.24 0.29 0.34 0.30 0.29 0.35 0.37 0.30 0.30 0.39 0.50 0.49 0.45 0.46 0.46 0.52 0.61 0.65 0.73 0.83 1.00 1.18 1.27 1.24 1.21 1.30 1.39 1.44 1.57
0.06 0.06 0.04 0.04 0.07 0.09 0.15 0.12 0.09 0.08 0.07 0.07 0.10 0.13 0.16 0.23 0.34 0.41 0.40 0.43 0.42 0.35 0.29 0.29 0.36 0.41 0.47 0.41 0.39 0.41 0.46 0.59 0.71 0.83 0.94 1.02 1.14 1.23 1.26 1.26 1.36 1.45 1.47 1.47
0.16 0.14 0.11 0.09 0.10 0.15 0.15 0.12 0.11 0.10 0.11 0.14 0.17 0.18 0.22 0.25 0.33 0.39 0.40 0.40 0.39 0.41 0.46 0.50 0.57 0.57 0.53 0.51 0.50 0.53 0.59 0.69 0.77 0.84 0.94 1.00 1.10 1.22 1.33 1.47 1.56 1.61 1.65 1.65
0.27 0.28 0.22 0.16 0.15 0.17 0.20 0.18 0.17 0.19 0.23 0.23 0.31 0.35 0.34 0.33 0.34 0.42 0.46 0.46 0.50 0.48 0.49 0.58 0.66 0.71 0.64 0.66 0.65 0.72 0.79 0.89 0.94 0.97 1.05 1.12 1.19 1.31 1.40 1.48 1.60 1.69 1.76 1.72
0.32 0.35 0.32 0.24 0.26 0.27 0.26 0.27 0.22 0.24 0.45 0.41 0.42 0.49 0.47 0.48 0.61 0.72 0.72 0.61 0.59 0.60 0.61 0.67 0.68 0.68 0.76 0.79 0.81 0.88 0.96 1.06 1.12 1.11 1.15 1.19 1.34 1.42 1.43 1.43 1.49 1.52 1.58 1.59
0.36 0.42 0.39 0.35 0.34 0.32 0.29 0.29 0.31 0.53 0.78 0.75 0.72 0.70 0.62 0.67 0.73 0.72 0.65 0.69 0.66 0.69 0.76 0.73 0.72 0.75 0.78 0.78 0.81 0.90 1.00 1.11 1.17 1.17 1.17 1.23 1.31 1.46 1.50 1.51 1.47 1.41 1.39 1.41
0.55 0.60 0.58 0.54 0.63 0.63 0.43 0.45 0.62 0.79 0.78 0.91 0.79 0.70 0.68 0.66 0.65 0.61 0.62 0.72 0.79 0.81 0.86 0.83 0.79 0.75 0.75 0.81 0.85 0.91 1.00 1.04 1.07 1.07 1.10 1.15 1.18 1.19 1.24 1.36 1.40 1.39 1.37 1.38
0.72 0.77 0.80 0.74 0.78 0.70 0.58 0.61 0.66 0.62 0.64 0.76 0.72 0.63 0.63 0.60 0.57 0.54 0.59 0.66 0.69 0.73 0.80 0.80 0.81 0.80 0.80 0.84 0.90 0.97 0.99 1.01 1.01 1.08 1.15 1.19 1.20 1.23 1.24 1.27 1.27 1.24 1.20 1.15
0.86 0.68 0.80 0.98 0.97 0.82 0.69 0.58 0.58 0.57 0.57 0.60 0.68 0.71 0.68 0.62 0.57 0.56 0.58 0.63 0.72 0.78 0.78 0.79 0.78 0.81 0.88 0.95 1.01 0.97 0.92 0.97 1.05 1.08 1.08 1.10 1.15 1.14 1.13 1.19 1.17 1.12 1.10 1.06
0.91 0.85 1.02 1.38 1.42 1.20 1.03 0.86 0.76 0.70 0.67 0.68 0.73 0.78 0.82 0.81 0.78 0.74 0.66 0.64 0.66 0.71 0.71 0.72 0.78 0.83 0.90 0.93 0.98 1.03 0.99 0.99 1.03 0.99 0.96 1.02 1.07 1.02 0.97 1.06 1.12 1.04 1.04 1.07
0.88 1.02 1.29 1.60 1.48 1.42 1.30 1.04 0.89 0.84 0.85 0.80 0.82 0.83 0.82 0.81 0.81 0.80 0.78 0.68 0.61 0.61 0.70 0.76 0.79 0.85 0.90 0.91 0.93 0.94 0.94 0.99 1.04 1.07 1.00 0.95 0.93 0.94 0.97 1.01 1.03 1.02 0.89 0.89